{"data":{"norad_id":66934,"epoch":"2026-05-25T00:06:23.596992Z","epoch_age_seconds":67830,"freshness":"FRESH","line1":"1 66934U 25286K   26145.00443978  .00007424  00000+0  26255-3 0  9993","line2":"2 66934  53.1621   3.7809 0001023  89.0161 271.0957 15.30195465 27106","mean_motion":15.30195465,"eccentricity":0.0001023,"inclination_deg":53.1621,"raan_deg":3.7809,"arg_perigee_deg":89.0161,"mean_anomaly_deg":271.0957,"bstar":0.00026255,"rev_number":2710,"period_min":94.105624603978,"perigee_km":474.52751084341,"apogee_km":475.92970944724,"semimajor_km":6853.3656101453,"source":"CELESTRAK","updated_at":"2026-05-25T13:38:21.386680Z"}}